This is the latest recevied weather packets stored in our database for station/object IZ7EXI-13. If no packets are shown the sender has not sent any weather packets the latest 10 day(s).
| Time | Temp. | Humidity | Pressure | Rain* | Wind** | Luminosity | Snow |
|---|---|---|---|---|---|---|---|
| 1777459956 | 26.11° C | 32% | 1018 hPa | - | - | - | - |
| 1777459920 | 26.11° C | 32% | 1018 hPa | - | - | - | - |
| 1777459051 | 26.11° C | 37% | 1018.2 hPa | - | - | - | - |
| 1777459020 | 26.11° C | 37% | 1018.2 hPa | - | - | - | - |
| 1777458120 | 25° C | 40% | 1018.2 hPa | - | - | - | - |
| 1777457244 | 24.44° C | 41% | 1018.3 hPa | - | - | - | - |
| 1777457219 | 24.44° C | 41% | 1018.3 hPa | - | - | - | - |
| 1777456345 | 23.89° C | 41% | 1018.4 hPa | - | - | - | - |
| 1777456319 | 23.89° C | 41% | 1018.4 hPa | - | - | - | - |
| 1777455451 | 23.89° C | 44% | 1018.4 hPa | - | - | - | - |
| 1777455419 | 23.89° C | 44% | 1018.4 hPa | - | - | - | - |
| 1777454550 | 23.89° C | 45% | 1018.5 hPa | - | - | - | - |
| 1777454519 | 23.89° C | 45% | 1018.5 hPa | - | - | - | - |
| 1777453646 | 23.33° C | 46% | 1018.5 hPa | - | - | - | - |
| 1777453618 | 23.33° C | 46% | 1018.5 hPa | - | - | - | - |
| 1777452754 | 22.78° C | 48% | 1018.5 hPa | - | - | - | - |
| 1777452718 | 22.78° C | 48% | 1018.5 hPa | - | - | - | - |
| 1777451851 | 22.78° C | 48% | 1018.7 hPa | - | - | - | - |
| 1777451818 | 22.78° C | 48% | 1018.7 hPa | - | - | - | - |
| 1777450950 | 22.22° C | 49% | 1018.7 hPa | - | - | - | - |
| 1777450918 | 22.22° C | 49% | 1018.7 hPa | - | - | - | - |
| 1777450017 | 22.22° C | 53% | 1018.7 hPa | - | - | - | - |
| 1777449140 | 22.22° C | 52% | 1018.6 hPa | - | - | - | - |
| 1777449117 | 22.22° C | 52% | 1018.6 hPa | - | - | - | - |
| 1777448246 | 22.22° C | 54% | 1018.6 hPa | - | - | - | - |
* Rain since midnight (hover to see other rain measurements)
** Current wind speed in m/s (hover to see current wind gust speed)